View from above orbital plane
|
View from above satellite
|
Ground track
|
The orbit data is extracted from the following two-line orbital elements,
1 29093U 06015B 21015.56204660 .00003148 00000-0 60232-4 0 9996
2 29093 97.6295 199.3375 0050049 273.4507 86.1018 15.47579781819271
Epoch (UTC): | 15 January 2021 13:29:20 |
Eccentricity: | 0.0050049 |
inclination: | 97.6295° |
perigee height: | 390 km |
apogee height: | 458 km |
right ascension of ascending node: | 199.3375° |
argument of perigee: | 273.4507° |
revolutions per day: | 15.47579781 |
mean anomaly at epoch: | 86.1018° |
orbit number at epoch: | 81927 |
The dashed part of the orbit path shows where the satellite is in the earth's shadow,
|
|